Time,TemperatureF,DewpointF,PressureIn,WindDirection,WindDirectionDegrees,WindSpeedMPH,WindSpeedGustMPH,Humidity,HourlyPrecipIn,Conditions,Clouds,dailyrainin,SolarRadiationWatts/m^2,SoftwareType,DateUTC
2013-08-27 00:22:00,56.0,41.0,-100.00,South,189,1.0,2.0,57,0.00,,,0.00,0.000000,,2013-08-27 08:22:00,
2013-08-27 00:33:00,56.0,41.0,-100.00,South,189,1.0,2.0,57,0.00,,,0.00,0.000000,,2013-08-27 08:33:00,
2013-08-27 00:42:00,56.0,41.0,-100.00,South,189,1.0,2.0,57,0.00,,,0.00,0.000000,,2013-08-27 08:42:00,
2013-08-27 00:52:00,56.0,41.0,-100.00,South,189,1.0,2.0,57,0.00,,,0.00,0.000000,,2013-08-27 08:52:00,
2013-08-27 01:21:00,56.0,40.0,-100.00,South,180,2.0,4.0,55,0.00,,,0.00,0.000000,,2013-08-27 09:21:00,
2013-08-27 01:35:00,56.0,40.0,-100.00,South,180,2.0,4.0,55,0.00,,,0.00,0.000000,,2013-08-27 09:35:00,
2013-08-27 01:43:00,56.0,40.0,-100.00,South,180,2.0,4.0,55,0.00,,,0.00,0.000000,,2013-08-27 09:43:00,
2013-08-27 01:54:00,56.0,40.0,-100.00,South,180,2.0,4.0,55,0.00,,,0.00,0.000000,,2013-08-27 09:54:00,
2013-08-27 02:25:00,53.0,41.0,-100.00,South,169,3.0,4.0,63,0.00,,,0.00,0.000000,,2013-08-27 10:25:00,
2013-08-27 02:33:00,53.0,41.0,-100.00,South,169,3.0,4.0,63,0.00,,,0.00,0.000000,,2013-08-27 10:33:00,
2013-08-27 02:43:00,53.0,41.0,-100.00,South,169,3.0,4.0,63,0.00,,,0.00,0.000000,,2013-08-27 10:43:00,
2013-08-27 02:53:00,53.0,41.0,-100.00,South,169,3.0,4.0,63,0.00,,,0.00,0.000000,,2013-08-27 10:53:00,
2013-08-27 03:22:00,54.0,41.0,-100.00,WSW,257,1.0,4.0,61,0.00,,,-99.99,0.000000,,2013-08-27 11:22:00,
2013-08-27 03:33:00,54.0,41.0,-100.00,WSW,257,1.0,4.0,61,0.00,,,-99.99,0.000000,,2013-08-27 11:33:00,
2013-08-27 03:42:00,54.0,41.0,-100.00,WSW,257,1.0,4.0,61,0.00,,,-99.99,0.000000,,2013-08-27 11:42:00,
2013-08-27 03:52:00,54.0,41.0,-100.00,WSW,257,1.0,4.0,61,0.00,,,-99.99,0.000000,,2013-08-27 11:52:00,
2013-08-27 04:21:00,54.0,42.0,-100.00,SSE,159,0.0,2.0,63,0.00,,,0.00,0.000000,,2013-08-27 12:21:00,
2013-08-27 04:32:00,54.0,42.0,-100.00,SSE,159,0.0,2.0,63,0.00,,,0.00,0.000000,,2013-08-27 12:32:00,
2013-08-27 04:42:00,54.0,42.0,-100.00,SSE,159,0.0,2.0,63,0.00,,,0.00,0.000000,,2013-08-27 12:42:00,
2013-08-27 04:52:00,54.0,42.0,-100.00,SSE,159,0.0,2.0,63,0.00,,,0.00,0.000000,,2013-08-27 12:52:00,
2013-08-27 05:22:00,54.0,41.0,-100.00,NE,38,2.0,3.0,61,0.00,,,0.00,0.000000,,2013-08-27 13:22:00,
2013-08-27 05:32:00,54.0,41.0,-100.00,NE,38,2.0,3.0,61,0.00,,,0.00,0.000000,,2013-08-27 13:32:00,
2013-08-27 05:42:00,54.0,41.0,-100.00,NE,38,2.0,3.0,61,0.00,,,0.00,0.000000,,2013-08-27 13:42:00,
2013-08-27 05:52:00,54.0,41.0,-100.00,NE,38,2.0,3.0,61,0.00,,,0.00,0.000000,,2013-08-27 13:52:00,
2013-08-27 06:22:00,54.0,42.0,-100.00,NNE,17,1.0,3.0,64,0.00,,,0.00,0.000000,,2013-08-27 14:22:00,
2013-08-27 06:32:00,54.0,42.0,-100.00,NNE,17,1.0,3.0,64,0.00,,,0.00,0.000000,,2013-08-27 14:32:00,
2013-08-27 06:42:00,54.0,42.0,-100.00,NNE,17,1.0,3.0,64,0.00,,,0.00,0.000000,,2013-08-27 14:42:00,
2013-08-27 06:53:00,54.0,42.0,-100.00,NNE,17,1.0,3.0,64,0.00,,,0.00,0.000000,,2013-08-27 14:53:00,
2013-08-27 06:56:00,53.0,41.0,-100.00,SW,214,2.0,4.0,64,0.00,,,0.00,2.000000,,2013-08-27 14:56:00,
2013-08-27 07:22:00,53.0,41.0,-100.00,SW,214,2.0,4.0,64,0.00,,,0.00,2.000000,,2013-08-27 15:22:00,
2013-08-27 07:35:00,53.0,41.0,-100.00,SW,214,2.0,4.0,64,0.00,,,0.00,2.000000,,2013-08-27 15:35:00,
2013-08-27 07:45:00,53.0,41.0,-100.00,SW,214,2.0,4.0,64,0.00,,,0.00,2.000000,,2013-08-27 15:45:00,
2013-08-27 08:28:00,52.0,44.0,-100.00,WNW,288,1.0,3.0,75,0.00,,,0.00,24.000000,,2013-08-27 16:28:00,
2013-08-27 08:35:00,52.0,44.0,-100.00,WNW,288,1.0,3.0,75,0.00,,,0.00,24.000000,,2013-08-27 16:35:00,
2013-08-27 08:46:00,52.0,44.0,-100.00,WNW,288,1.0,3.0,75,0.00,,,0.00,24.000000,,2013-08-27 16:46:00,
2013-08-27 08:55:00,52.0,44.0,-100.00,WNW,288,1.0,3.0,75,0.00,,,0.00,24.000000,,2013-08-27 16:55:00,
2013-08-27 09:23:00,53.0,47.0,-100.00,South,191,2.0,4.0,80,0.00,,,0.00,61.000000,,2013-08-27 17:23:00,
2013-08-27 09:35:00,53.0,47.0,-100.00,South,191,2.0,4.0,80,0.00,,,0.00,61.000000,,2013-08-27 17:35:00,
2013-08-27 09:43:00,53.0,47.0,-100.00,South,191,2.0,4.0,80,0.00,,,0.00,61.000000,,2013-08-27 17:43:00,
2013-08-27 09:52:00,53.0,47.0,-100.00,South,191,2.0,4.0,80,0.00,,,0.00,61.000000,,2013-08-27 17:52:00,
2013-08-27 10:42:00,54.0,48.0,-100.00,SSW,202,3.0,4.0,81,0.00,,,0.00,153.000000,,2013-08-27 18:42:00,
2013-08-27 10:52:00,54.0,48.0,-100.00,SSW,202,3.0,4.0,81,0.00,,,0.00,153.000000,,2013-08-27 18:52:00,
2013-08-27 11:22:00,56.0,50.0,-100.00,SW,223,3.0,5.0,79,0.00,,,0.00,199.000000,,2013-08-27 19:22:00,
2013-08-27 11:32:00,56.0,50.0,-100.00,SW,223,3.0,5.0,79,0.00,,,0.00,199.000000,,2013-08-27 19:32:00,
2013-08-27 11:42:00,56.0,50.0,-100.00,SW,223,3.0,5.0,79,0.00,,,0.00,199.000000,,2013-08-27 19:42:00,
2013-08-27 11:52:00,56.0,50.0,-100.00,SW,223,3.0,5.0,79,0.00,,,0.00,199.000000,,2013-08-27 19:52:00,